Regional Weather Roundup
Issued by NWS

Home | Current Version | Previous Version | Graphics & Text | Print | Product List | Glossary On
Versions: 1 2 3 4 5 6 7 8 9 10 11 12 13 14 15 16 17 18 19 20 21 22 23 24 25 26 27 28 29 30 31 32 33 34 35 36 37 38 39 40 41 42 43 44 45 46 47 48 49 50
000
ASUS43 KMPX 250210
RWRMN
WEATHER ROUNDUP FOR MINNESOTA
NATIONAL WEATHER SERVICE TWIN CITIES/CHANHASSEN MN
900 PM CDT SUN JUL 24 2016


NOTE: "FAIR" INDICATES FEW OR NO CLOUDS BELOW 12,000 FEET WITH NO
SIGNIFICANT WEATHER AND/OR OBSTRUCTIONS TO VISIBILITY. N/A MEANS
CURRENT SKY AND/OR WEATHER CONDITIONS ARE NOT AVAILABLE.

MNZ060>063-068>070-250300-
   Twin Cities Metro

CITY           SKY/WX    TMP DP  RH WIND       PRES   REMARKS
TWIN CITIES    PTCLDY    77  63  61 W8        29.93S
ST PAUL        CLEAR     77  62  59 W10       29.92S
CRYSTAL        CLEAR     76  61  59 W6        29.92S
BLAINE         CLEAR     77  63  61 W8        29.93S
LAKEVILLE      CLEAR     72  63  73 W6        29.95S
EDEN PRAIRIE   CLEAR     76  63  64 W7        29.93S
LAKEVILLE      CLEAR     72  63  73 W6        29.95S
SOUTH ST PAUL  CLEAR     77  62  59 W6        29.92S
LAKE ELMO      FAIR      73  63  68 W7        29.93S
$$
MNZ001>005-007-008-013>017-022>024-027-028-250300-
   Northwest Minnesota

CITY           SKY/WX    TMP DP  RH WIND       PRES   REMARKS
BEMIDJI        CLEAR     72  61  68 W7        29.92S
HALLOCK        CLEAR     73  66  78 NW5       29.90R
ROSEAU         CLEAR     70  63  78 NW5       29.89S
WARROAD        CLEAR     72  63  73 W6        29.89R
THIEF RVR FALL CLEAR     70  62  76 W7        29.93R
CROOKSTON      CLEAR     70  63  78 W7        29.93R
FOSSTON        CLEAR     70  61  73 W5        29.94S
DETROIT LAKES  CLEAR     72  57  60 W7        29.98S
MOORHEAD       CLEAR     73  59  60 NW5       29.96R
PARK RAPIDS    MOCLDY    72  60  66 W7        29.95R
MAHNOMEN       FAIR      69  60  74 W6        29.94S
$$
MNZ006-009>011-018-025>026-250300-
   North Central Minnesota

CITY           SKY/WX    TMP DP  RH WIND       PRES   REMARKS
BAUDETTE       MOCLDY    70  62  76 NW6       29.88R
FLAG ISLAND    MOCLDY    70  61  73 NW13      29.86S
INTL FALLS     PTCLDY    68  59  73 W7        29.86R
WASKISH        MOCLDY    73  63  68 W8        29.88F
BIG FORK       CLEAR     72  61  68 W3        29.90R
LONGVILLE      CLEAR     70  61  73 W5        29.93R
GRAND RAPIDS   CLEAR     73  60  63 W6        29.92R
CRANE LAKE     CLEAR     70  59  68 W3        29.86R
ORR            MOCLDY    70  57  64 CALM      29.85R
COOK           PTCLDY    70  61  73 W3        29.87R
WALKER         FAIR      70  60  69 W8        29.93R
$$
MNZ012-019>021-037-250300-
   Northeast Minnesota

CITY           SKY/WX    TMP DP  RH WIND       PRES   REMARKS
DULUTH         PTCLDY    72  60  66 W8        29.88S
ELY            PTCLDY    72  59  64 W7        29.85R
HIBBING        CLEAR     69  58  67 W6        29.88R
EVELETH        CLEAR     73  55  54 W10G16    29.89R
DULUTH HARBOR  CLEAR     79  64  61 W10       29.85S
TWO HARBORS    CLEAR     72  63  73 W5        29.84S
SILVER BAY     CLEAR     72  61  68 CALM      29.83R
GRAND MARAIS     N/A     69  61  75 CALM      29.78R
G MARAIS ARPRT CLEAR     66  55  68 W5        29.85S
$$
MNZ029>031-032-039>041-046>048-054>057-064-250300-
   West Central Minnesota

CITY           SKY/WX    TMP DP  RH WIND       PRES   REMARKS
FERGUS FALLS   CLEAR     70  61  73 W5        29.98S
WHEATON        CLEAR     75  63  64 W5        30.00S
MORRIS         CLEAR     72  63  73 W5        29.98S
ALEXANDRIA     CLEAR     71  58  63 W7        30.00R
ELBOW LAKE     FAIR      70  62  74 NW5       29.99S
WADENA         CLEAR     70  57  64 W6        29.96R
GLENWOOD       CLEAR     70  61  73 W6        30.00R
APPLETON       CLEAR     72  64  78 W3        29.99R
BENSON         CLEAR     70  61  73 NW3       29.99R
ORTONVILLE     CLEAR     75  57  53 CALM      30.00R
MADISON        CLEAR     73  63  68 NW3       30.00R
WILLMAR        FAIR      73  64  73 NW7       29.99S
$$
MNZ033>034-036-042>043-049>051-058-059-250300-
   Central Minnesota

CITY           SKY/WX    TMP DP  RH WIND       PRES   REMARKS
ST CLOUD       CLEAR     74  61  63 W8        29.94R
SAUK CENTRE    FAIR      70  59  69 W6        29.97S
PAYNESVILLE    CLEAR     69  62  78 W5        29.98R
AITKIN         CLEAR     73  57  56 W5        29.91S
PINE RIVER     PTCLDY    72  61  68 CALM      29.97R
BRAINERD       CLEAR     74  60  61 W8        29.94R
STAPLES        CLEAR     68  61  77 W5        29.96R
LONG PRAIRIE   FAIR      72  59  64 SW5       29.98R
LITTLE FALLS   CLEAR     72  59  64 W5        29.95S
LITCHFIELD     CLEAR     73  66  78 W5        29.97S
BUFFALO        CLEAR     74  63  67 W5        29.96S
MAPLE LAKE     CLEAR     75  65  71 W3        29.96R
HUTCHINSON     CLEAR     71  67  87 W6        29.98S
$$
MNZ037-044-045-052-053-250300-
   East Central Minnesota

CITY           SKY/WX    TMP DP  RH WIND       PRES   REMARKS
PRINCETON      CLEAR     73  63  68 W6        29.94R
MORA           CLEAR     70  61  73 W3        29.94R
CAMBRIDGE      CLEAR     75  63  64 SW3       29.91S
RUSH CITY      CLEAR     73  63  70 SW3       29.92R
MOOSE LAKE     MOCLDY    72  61  68 W3        29.88S
HINCKLEY       FAIR      70  64  83 W5        29.91S
CLOQUET        CLEAR     72  57  60 W7        29.89S
MCGREGOR       CLEAR     72  61  68 W3        29.91S
$$
MNZ071>073-080-081-089-090-097-098-250300-
   Southwest Minnesota

CITY           SKY/WX    TMP DP  RH WIND       PRES   REMARKS
MONTEVIDEO     CLEAR     73  61  64 N5        30.01S
GRANITE FALLS  CLEAR     73  70  89 W5        30.00S
CANBY          CLEAR     75  65  71 NW5       30.02R
MARSHALL       CLEAR     72  66  81 W7        30.01R
REDWOOD FALLS  CLEAR     73  63  70 W7        29.98S
OLIVIA         CLEAR     73  68  83 NW3       29.98S
PIPESTONE      CLEAR     73  61  64 W5        30.05R
WINDOM         CLEAR     72  64  78 W3        30.02S
WORTHINGTON    CLEAR     70  64  81 W6        30.04S
JACKSON        CLEAR     70  64  83 W6        30.03S
TRACY          CLEAR     73  65  76 CALM      30.02R
SLAYTON        RAIN      71  64  79 W5        30.04S
$$
MNZ065>067-074>077-082>085-091>093-250300-
   South Central Minnesota

CITY           SKY/WX    TMP DP  RH WIND       PRES   REMARKS
MANKATO        CLEAR     73  63  68 W6        29.98S
NEW ULM        CLEAR     72  66  83 W3        29.98S
ST JAMES       CLEAR     68  63  83 W3        30.00S
FAIRMONT       PTCLDY    72  54  53 CALM      29.99S
GLENCOE        CLEAR     75  66  75 W3        29.96S
FARIBAULT      CLEAR     72  64  78 W5        29.98R
OWATONNA       CLEAR     70  64  83 W5        29.98S
WASECA         CLEAR     70  64  83 W5        30.00S
ALBERT LEA     CLEAR     72  64  78 CALM      29.99S
$$
MNZ078>079-086>088-094>096-250300-
   Southeast Minnesota

CITY           SKY/WX    TMP DP  RH WIND       PRES   REMARKS
ROCHESTER      CLEAR     71  67  87 W8        29.97R
RED WING       CLEAR     75  63  64 NW5       29.91R
STANTON        CLEAR     73  64  73 W5        29.94R
DODGE CENTER   CLEAR     72  63  73 W8        29.98R
WINONA         CLEAR     77  63  61 W8        29.92R
AUSTIN         CLEAR     72  64  78 W7        29.98R
PRESTON        CLEAR     69  64  84 W7        29.98R
$$
ABBREVIATIONS USED IN REMARKS
   TC - TEMPERATURES IN CELSIUS
  WCI - WIND CHILL INDEX
   HX - HEAT INDEX
  VSB - VISIBILITY
$$




USA.gov is the U.S. government's official web portal to all federal, state and local government web resources and services.